Search your local weather  

 
Advertise Here

Hazardous Weather Conditions

No active alerts for DENVER, COLORADO

Current Conditions: DENVER, COLORADO

Mostly Cloudy


86.0 F

Last Updated on Jun 18 2021, 5:47 pm MDT
Humidity: 20%
Wind Speed: S 11.5 G 18.4 mph
Barometer 30.07 in
Dewpoint: 41.0 F
Visibility: 10.00 mi
Precip: --
Heat Index: 83 F
Wind Chill: NA
Current conditions at:

Broomfield / Jeffco, CO (KBJC)

Lat: 39.90085 Lon: -105.10417

Local Radar Image active severe weather and emergency alerts image image weather storm and storm spotter reports image weather observation monitoring service image
Local
Radar
Active
Alerts
Storm Reports Weather
Monitoring

5 Day Forecast for DENVER, COLORADO (80202)

Friday

Isolated T-storm

High 91 °F
Friday
Night
Isolated T-storm

Low 64 °F
Saturday

Chance of T-storms

High 92 °F
Saturday
Night
Isolated T-storm

Low 64 °F
Sunday

Isolated T-storm

High 90 °F
Sunday
Night
Chance of Rain Showers
Low 56 °F
Monday

Chance of Scattered T-storms
High 74 °F
Monday
Night
Partly Cloudy

Low 54 °F
Tuesday

Mostly Sunny

High 88 °F

Sign-up For Email & Text Message Weather Alert Notification Services


Advertise Here

Observation History for DENVER, COLORADO


Time Wind
(mph)
Vis
(mi)
Weather Precip (in) Temperature (F) Relative
Humidity
Wind
Chill
(F)
Heat
Index
(F)
Pressure
Air Dwpt altimeter
(in)
sea level
(mb)
5:47 pm MDT S 11.5 G 18.4 10.00 Mostly Cloudy -- 86.0 41.0 20% NA 83 30.07 M
4:48 pm MDT SE 5.8 30.00 Mostly Cloudy -- 84.0 46.4 27% NA 82 30.09 M
2:50 pm MDT NE 9.2 10.00 Mostly Cloudy -- 86.0 46.4 25% NA 83 30.12 M
1:50 pm MDT NE 5.8 10.00 Mostly Cloudy -- 88.0 42.8 21% NA 85 30.13 M
12:49 pm MDT NE 10.4 G 16.1 10.00 Mostly Cloudy -- 86.0 46.4 25% NA 83 30.14 M
11:45 am MDT N 5.8 10.00 Mostly Cloudy -- 84.0 35.6 18% NA 81 30.16 M
9:45 am MDT SE 5.8 10.00 Partly Cloudy -- 81.0 39.2 23% NA 79 30.15 M
8:47 am MDT SE 4.6 10.00 Partly Cloudy -- 77.0 48.2 36% NA NA 30.14 M
7:45 am MDT N 0.0 10.00 Mostly Cloudy -- 73.0 42.8 33% NA NA 30.12 M
6:35 am MDT S 3.5 10.00 Fair -- 72.0 37.4 29% NA NA 30.10 M
5:55 am MDT N 0.0 10.00 Fair -- 70.0 37.4 31% NA NA 30.10 M
4:35 am MDT N 0.0 10.00 Fair -- 73.0 33.8 23% NA NA 30.07 M
3:55 am MDT NW 11.5 10.00 Fair -- 77.0 30.2 18% NA NA 30.07 M
2:55 am MDT W 13.8 10.00 Fair -- 79.0 32.0 18% NA NA 30.06 M
1:55 am MDT NW 11.5 10.00 Fair -- 79.0 32.0 18% NA NA 30.06 M
12:55 am MDT W 5.8 10.00 Fair -- 73.0 35.6 25% NA NA 30.06 M
11:55 pm MDT NW 8.1 10.00 Fair -- 77.0 35.6 22% NA NA 30.07 M
9:45 pm MDT W 6.9 10.00 Mostly Cloudy -- 79.0 37.4 23% NA NA 30.05 M
7:49 pm MDT SE 8.1 G 17.3 30.00 Mostly Cloudy -- 90.0 32.0 13% NA 86 30.06 M
6:45 pm MDT SE 4.6 10.00 Mostly Cloudy -- 86.0 37.4 18% NA 83 30.06 M

Regional Weather Observation

Erie Municipal Airport, CO (KEIK)

Fair
85.0 F

Boulder Municipal Airport, CO (KBDU)

Fair
84.0 F

Unknown Station (KC99)

Overcast
59.0 F

Vance Brand Airport, CO (KLMO)

Fair
91.0 F

Berthoud Pass, CO (K0CO)

Overcast
50.0 F

Fort Collins/Loveland - Northern Colorado Regional Airport, CO (KFNL)

Fair
85.0 F
Advertise Here

Advertise Here